Back to catalog

CZ-6A DEB

AliveSSO
NORAD 55554·DEBRIS·🇨🇳 China

Launched Nov 11, 2022 from Taiyuan Satellite Launch Center

Loading…

Next Passes (next 24 hours)

TLE

FreshSource: Space-Track

Epoch: Sep 12, 2026, 23:28 UTC

1 55554U 22151ZC  26255.97805314  .00001625  00000-0  83027-3 0  9999
2 55554  98.8228 250.9931 0058448  75.4572 285.3075 14.16126936197287

Track CZ-6A DEB in real time with AllMySat

Download on the App Store